Time,TemperatureF,DewpointF,PressureIn,WindDirection,WindDirectionDegrees,WindSpeedMPH,WindSpeedGustMPH,Humidity,HourlyPrecipIn,Conditions,Clouds,dailyrainin,SoftwareType,DateUTC
2013-01-13 00:00:00,4.3,-3.3,30.07,WNW,292,2.0,5.0,70,0.00,,---,0.00,VWS V14.01,2013-01-13 06:00:00,
2013-01-13 00:02:00,4.3,-3.3,30.07,NW,309,3.0,5.0,70,0.00,,CLR,0.00,VWS V14.01,2013-01-13 06:02:00,
2013-01-13 00:05:00,4.3,-3.3,30.07,NW,315,4.0,7.0,70,0.00,,---,0.00,VWS V14.01,2013-01-13 06:05:00,
2013-01-13 00:10:00,4.3,-3.3,30.07,WNW,292,4.0,7.0,70,0.00,,---,0.00,VWS V14.01,2013-01-13 06:10:00,
2013-01-13 00:12:00,4.3,-3.3,30.07,WNW,300,2.0,7.0,70,0.00,,CLR,0.00,VWS V14.01,2013-01-13 06:12:00,
2013-01-13 00:15:00,4.1,-3.5,30.07,WNW,292,4.0,10.0,70,0.00,,---,0.00,VWS V14.01,2013-01-13 06:15:00,
2013-01-13 00:20:00,4.1,-3.8,30.07,NW,315,4.0,9.0,69,0.00,,---,0.00,VWS V14.01,2013-01-13 06:20:00,
2013-01-13 00:25:00,4.1,-3.8,30.07,WNW,292,5.0,9.0,69,0.00,,---,0.00,VWS V14.01,2013-01-13 06:25:00,
2013-01-13 00:30:00,3.9,-4.0,30.07,WNW,292,4.0,9.0,69,0.00,,---,0.00,VWS V14.01,2013-01-13 06:30:00,
2013-01-13 00:32:00,3.9,-4.0,30.07,West,277,4.0,9.0,69,0.00,,CLR,0.00,VWS V14.01,2013-01-13 06:32:00,
2013-01-13 00:35:00,3.9,-4.0,30.07,WNW,292,4.0,9.0,69,0.00,,---,0.00,VWS V14.01,2013-01-13 06:35:00,
2013-01-13 00:40:00,3.9,-4.3,30.07,NNW,338,4.0,7.0,68,0.00,,---,0.00,VWS V14.01,2013-01-13 06:40:00,
2013-01-13 00:45:00,3.9,-4.3,30.07,NW,315,2.0,7.0,68,0.00,,---,0.00,VWS V14.01,2013-01-13 06:45:00,
2013-01-13 00:47:00,3.9,-4.3,30.07,NW,309,7.0,7.0,68,0.00,,CLR,0.00,VWS V14.01,2013-01-13 06:47:00,
2013-01-13 00:50:00,3.7,-4.5,30.07,NNW,338,2.0,7.0,68,0.00,,---,0.00,VWS V14.01,2013-01-13 06:50:00,
2013-01-13 00:52:00,3.7,-4.5,30.07,NNW,331,0.0,7.0,68,0.00,,CLR,0.00,VWS V14.01,2013-01-13 06:52:00,
2013-01-13 00:55:00,3.7,-4.5,30.07,NW,315,3.0,6.0,68,0.00,,---,0.00,VWS V14.01,2013-01-13 06:55:00,
2013-01-13 00:57:00,3.7,-4.5,30.07,NW,319,0.0,6.0,68,0.00,,CLR,0.00,VWS V14.01,2013-01-13 06:57:00,
2013-01-13 01:00:00,3.7,-4.5,30.06,NW,315,4.0,7.0,68,0.00,,---,0.00,VWS V14.01,2013-01-13 07:00:00,
2013-01-13 01:05:00,3.5,-4.7,30.06,NW,315,4.0,9.0,68,0.00,,---,0.00,VWS V14.01,2013-01-13 07:05:00,
2013-01-13 01:07:00,3.5,-4.7,30.06,NW,326,3.0,9.0,68,0.00,,CLR,0.00,VWS V14.01,2013-01-13 07:07:00,
2013-01-13 01:10:00,3.5,-4.7,30.06,NW,315,4.0,6.0,68,0.00,,---,0.00,VWS V14.01,2013-01-13 07:10:00,
2013-01-13 01:15:00,3.5,-4.7,30.06,NW,315,1.0,5.0,68,0.00,,---,0.00,VWS V14.01,2013-01-13 07:15:00,
2013-01-13 01:17:00,3.5,-4.7,30.06,WNW,286,4.0,5.0,68,0.00,,CLR,0.00,VWS V14.01,2013-01-13 07:17:00,
2013-01-13 01:20:00,3.5,-4.7,30.06,WNW,292,4.0,7.0,68,0.00,,---,0.00,VWS V14.01,2013-01-13 07:20:00,
2013-01-13 01:22:00,3.5,-4.7,30.06,NNW,328,2.0,7.0,68,0.00,,CLR,0.00,VWS V14.01,2013-01-13 07:22:00,
2013-01-13 01:25:00,3.4,-4.8,30.06,WNW,292,3.0,10.0,68,0.00,,---,0.00,VWS V14.01,2013-01-13 07:25:00,
2013-01-13 01:27:00,3.4,-4.8,30.06,WNW,302,7.0,10.0,68,0.00,,CLR,0.00,VWS V14.01,2013-01-13 07:27:00,
2013-01-13 01:30:00,3.4,-4.8,30.07,NW,315,2.0,6.0,68,0.00,,---,0.00,VWS V14.01,2013-01-13 07:30:00,
2013-01-13 01:32:00,3.4,-4.8,30.07,WNW,294,4.0,7.0,68,0.00,,CLR,0.00,VWS V14.01,2013-01-13 07:32:00,
2013-01-13 01:35:00,3.2,-5.0,30.07,NW,315,4.0,10.0,68,0.00,,---,0.00,VWS V14.01,2013-01-13 07:35:00,
2013-01-13 01:37:00,3.2,-5.0,30.07,NW,323,3.0,10.0,68,0.00,,CLR,0.00,VWS V14.01,2013-01-13 07:37:00,
2013-01-13 01:40:00,3.2,-5.0,30.07,NW,315,4.0,8.0,68,0.00,,---,0.00,VWS V14.01,2013-01-13 07:40:00,
2013-01-13 01:42:00,3.2,-5.0,30.07,NW,315,4.0,8.0,68,0.00,,CLR,0.00,VWS V14.01,2013-01-13 07:42:00,
2013-01-13 01:45:00,3.2,-5.0,30.06,NW,315,4.0,9.0,68,0.00,,---,0.00,VWS V14.01,2013-01-13 07:45:00,
2013-01-13 01:47:00,3.2,-5.0,30.06,WNW,301,6.0,8.0,68,0.00,,CLR,0.00,VWS V14.01,2013-01-13 07:47:00,
2013-01-13 01:50:00,3.0,-5.2,30.06,NW,315,4.0,10.0,68,0.00,,---,0.00,VWS V14.01,2013-01-13 07:50:00,
2013-01-13 01:52:00,3.0,-5.2,30.06,NW,325,4.0,10.0,68,0.00,,CLR,0.00,VWS V14.01,2013-01-13 07:52:00,
2013-01-13 01:55:00,3.0,-5.2,30.06,NW,315,4.0,9.0,68,0.00,,---,0.00,VWS V14.01,2013-01-13 07:55:00,
2013-01-13 02:00:00,3.0,-5.2,30.07,NW,315,5.0,9.0,68,0.00,,---,0.00,VWS V14.01,2013-01-13 08:00:00,
2013-01-13 02:05:00,2.8,-5.1,30.07,WNW,292,2.0,8.0,69,0.00,,---,0.00,VWS V14.01,2013-01-13 08:05:00,
2013-01-13 02:10:00,2.8,-5.1,30.07,NNW,338,1.0,7.0,69,0.00,,---,0.00,VWS V14.01,2013-01-13 08:10:00,
2013-01-13 02:15:00,2.8,-5.1,30.07,NW,315,3.0,7.0,69,0.00,,---,0.00,VWS V14.01,2013-01-13 08:15:00,
2013-01-13 02:20:00,2.8,-5.1,30.07,NW,315,4.0,9.0,69,0.00,,---,0.00,VWS V14.01,2013-01-13 08:20:00,
2013-01-13 02:25:00,2.6,-5.2,30.07,NW,315,3.0,7.0,69,0.00,,---,0.00,VWS V14.01,2013-01-13 08:25:00,
2013-01-13 02:30:00,2.6,-5.2,30.07,NW,315,4.0,9.0,69,0.00,,---,0.00,VWS V14.01,2013-01-13 08:30:00,
2013-01-13 02:35:00,2.6,-5.2,30.07,NNW,338,4.0,7.0,69,0.00,,---,0.00,VWS V14.01,2013-01-13 08:35:00,
2013-01-13 02:40:00,2.6,-5.2,30.07,NW,315,2.0,7.0,69,0.00,,---,0.00,VWS V14.01,2013-01-13 08:40:00,
2013-01-13 02:45:00,2.6,-5.2,30.06,NW,315,2.0,6.0,69,0.00,,---,0.00,VWS V14.01,2013-01-13 08:45:00,
2013-01-13 02:50:00,2.6,-4.9,30.06,NW,315,0.0,5.0,70,0.00,,---,0.00,VWS V14.01,2013-01-13 08:50:00,
2013-01-13 02:55:00,2.6,-4.9,30.06,NNW,338,3.0,6.0,70,0.00,,---,0.00,VWS V14.01,2013-01-13 08:55:00,
2013-01-13 03:00:00,2.6,-4.9,30.06,WNW,292,3.0,5.0,70,0.00,,---,0.00,VWS V14.01,2013-01-13 09:00:00,
2013-01-13 03:05:00,2.6,-4.9,30.06,NW,315,1.0,6.0,70,0.00,,---,0.00,VWS V14.01,2013-01-13 09:05:00,
2013-01-13 03:10:00,2.6,-4.9,30.06,NW,315,2.0,6.0,70,0.00,,---,0.00,VWS V14.01,2013-01-13 09:10:00,
2013-01-13 03:12:00,2.6,-4.9,30.06,WNW,294,0.0,6.0,70,0.00,,CLR,0.00,VWS V14.01,2013-01-13 09:12:00,
2013-01-13 03:15:00,2.4,-5.1,30.06,WNW,292,2.0,7.0,70,0.00,,---,0.00,VWS V14.01,2013-01-13 09:15:00,
2013-01-13 03:17:00,2.4,-5.1,30.06,WNW,296,5.0,7.0,70,0.00,,CLR,0.00,VWS V14.01,2013-01-13 09:17:00,
2013-01-13 03:20:00,2.4,-5.1,30.06,WNW,292,2.0,5.0,70,0.00,,---,0.00,VWS V14.01,2013-01-13 09:20:00,
2013-01-13 03:22:00,2.4,-5.1,30.06,WNW,296,3.0,5.0,70,0.00,,CLR,0.00,VWS V14.01,2013-01-13 09:22:00,
2013-01-13 03:25:00,2.4,-5.1,30.06,NW,315,3.0,7.0,70,0.00,,---,0.00,VWS V14.01,2013-01-13 09:25:00,
2013-01-13 03:27:00,2.4,-5.1,30.06,WNW,296,5.0,7.0,70,0.00,,CLR,0.00,VWS V14.01,2013-01-13 09:27:00,
2013-01-13 03:30:00,2.4,-4.8,30.06,WNW,292,3.0,6.0,71,0.00,,---,0.00,VWS V14.01,2013-01-13 09:30:00,
2013-01-13 03:35:00,2.4,-4.8,30.06,WNW,292,4.0,10.0,71,0.00,,---,0.00,VWS V14.01,2013-01-13 09:35:00,
2013-01-13 03:37:00,2.4,-4.8,30.06,NW,319,6.0,10.0,71,0.00,,CLR,0.00,VWS V14.01,2013-01-13 09:37:00,
2013-01-13 03:40:00,2.4,-4.8,30.06,NW,315,4.0,7.0,71,0.00,,---,0.00,VWS V14.01,2013-01-13 09:40:00,
2013-01-13 03:42:00,2.4,-4.8,30.06,WNW,295,4.0,7.0,71,0.00,,CLR,0.00,VWS V14.01,2013-01-13 09:42:00,
2013-01-13 03:45:00,2.4,-4.8,30.06,WNW,292,3.0,7.0,71,0.00,,---,0.00,VWS V14.01,2013-01-13 09:45:00,
2013-01-13 03:47:00,2.4,-4.8,30.06,WNW,297,5.0,7.0,71,0.00,,CLR,0.00,VWS V14.01,2013-01-13 09:47:00,
2013-01-13 03:50:00,2.6,-4.7,30.06,WNW,292,3.0,7.0,71,0.00,,---,0.00,VWS V14.01,2013-01-13 09:50:00,
2013-01-13 03:55:00,2.6,-4.7,30.06,NW,315,2.0,7.0,71,0.00,,---,0.00,VWS V14.01,2013-01-13 09:55:00,
2013-01-13 03:57:00,2.6,-4.7,30.06,NW,305,4.0,7.0,71,0.00,,CLR,0.00,VWS V14.01,2013-01-13 09:57:00,
2013-01-13 04:00:00,2.6,-4.7,30.06,NW,315,5.0,7.0,71,0.00,,---,0.00,VWS V14.01,2013-01-13 10:00:00,
2013-01-13 04:02:00,2.6,-4.7,30.06,WNW,298,6.0,7.0,71,0.00,,OVC030,0.00,VWS V14.01,2013-01-13 10:02:00,
2013-01-13 04:05:00,2.6,-4.7,30.06,WNW,292,5.0,10.0,71,0.00,,---,0.00,VWS V14.01,2013-01-13 10:05:00,
2013-01-13 04:07:00,2.6,-4.7,30.06,NW,306,4.0,10.0,71,0.00,,OVC030,0.00,VWS V14.01,2013-01-13 10:07:00,
2013-01-13 04:10:00,2.6,-4.7,30.06,NW,315,5.0,11.0,71,0.00,,---,0.00,VWS V14.01,2013-01-13 10:10:00,
2013-01-13 04:12:00,2.6,-4.7,30.06,NW,309,5.0,11.0,71,0.00,,OVC030,0.00,VWS V14.01,2013-01-13 10:12:00,
2013-01-13 04:15:00,2.6,-4.7,30.06,NW,315,3.0,7.0,71,0.00,,---,0.00,VWS V14.01,2013-01-13 10:15:00,
2013-01-13 04:17:00,2.6,-4.7,30.06,WNW,288,0.0,7.0,71,0.00,,OVC030,0.00,VWS V14.01,2013-01-13 10:17:00,
2013-01-13 04:20:00,2.6,-4.7,30.06,WNW,292,4.0,9.0,71,0.00,,---,0.00,VWS V14.01,2013-01-13 10:20:00,
2013-01-13 04:22:00,2.6,-4.7,30.06,WNW,288,5.0,9.0,71,0.00,,OVC030,0.00,VWS V14.01,2013-01-13 10:22:00,
2013-01-13 04:25:00,2.6,-4.7,30.06,WNW,292,5.0,10.0,71,0.00,,---,0.00,VWS V14.01,2013-01-13 10:25:00,
2013-01-13 04:27:00,2.6,-4.7,30.06,WNW,293,5.0,9.0,71,0.00,,OVC030,0.00,VWS V14.01,2013-01-13 10:27:00,
2013-01-13 04:30:00,2.6,-4.7,30.06,WNW,292,5.0,9.0,71,0.00,,---,0.00,VWS V14.01,2013-01-13 10:30:00,
2013-01-13 04:32:00,2.6,-4.7,30.06,NNW,345,2.0,9.0,71,0.00,,OVC030,0.00,VWS V14.01,2013-01-13 10:32:00,
2013-01-13 04:35:00,2.6,-4.7,30.06,WNW,292,3.0,7.0,71,0.00,,---,0.00,VWS V14.01,2013-01-13 10:35:00,
2013-01-13 04:37:00,2.6,-4.7,30.06,WNW,297,7.0,7.0,71,0.00,,OVC030,0.00,VWS V14.01,2013-01-13 10:37:00,
2013-01-13 04:40:00,2.8,-4.4,30.06,WNW,292,3.0,6.0,71,0.00,,---,0.00,VWS V14.01,2013-01-13 10:40:00,
2013-01-13 04:42:00,2.8,-4.4,30.06,West,272,4.0,7.0,71,0.00,,OVC030,0.00,VWS V14.01,2013-01-13 10:42:00,
2013-01-13 04:45:00,2.8,-4.4,30.08,WNW,292,6.0,13.0,71,0.00,,---,0.00,VWS V14.01,2013-01-13 10:45:00,
2013-01-13 04:47:00,2.8,-4.4,30.08,NW,305,4.0,13.0,71,0.00,,OVC030,0.00,VWS V14.01,2013-01-13 10:47:00,
2013-01-13 04:50:00,2.8,-4.4,30.08,WNW,292,6.0,10.0,71,0.00,,---,0.00,VWS V14.01,2013-01-13 10:50:00,
2013-01-13 04:52:00,2.8,-4.4,30.08,NW,304,6.0,10.0,71,0.00,,OVC030,0.00,VWS V14.01,2013-01-13 10:52:00,
2013-01-13 04:55:00,2.6,-4.7,30.08,NW,315,7.0,11.0,71,0.00,,---,0.00,VWS V14.01,2013-01-13 10:55:00,
2013-01-13 04:57:00,2.6,-4.7,30.08,NW,317,4.0,10.0,71,0.00,,OVC030,0.00,VWS V14.01,2013-01-13 10:57:00,
2013-01-13 05:00:00,2.6,-4.7,30.06,WNW,292,6.0,12.0,71,0.00,,---,0.00,VWS V14.01,2013-01-13 11:00:00,
2013-01-13 05:02:00,2.6,-4.7,30.06,NW,309,11.0,12.0,71,0.00,,OVC030,0.00,VWS V14.01,2013-01-13 11:02:00,
2013-01-13 05:05:00,2.6,-4.7,30.06,NW,315,6.0,10.0,71,0.00,,---,0.00,VWS V14.01,2013-01-13 11:05:00,
2013-01-13 05:07:00,2.6,-4.7,30.06,WNW,287,7.0,11.0,71,0.00,,OVC030,0.00,VWS V14.01,2013-01-13 11:07:00,
2013-01-13 05:10:00,2.4,-4.8,30.06,WNW,292,7.0,12.0,71,0.00,,---,0.00,VWS V14.01,2013-01-13 11:10:00,
2013-01-13 05:12:00,2.4,-4.8,30.06,WNW,300,7.0,12.0,71,0.00,,OVC030,0.00,VWS V14.01,2013-01-13 11:12:00,
2013-01-13 05:15:00,2.6,-4.7,30.08,NW,315,6.0,10.0,71,0.00,,---,0.00,VWS V14.01,2013-01-13 11:15:00,
2013-01-13 05:20:00,2.6,-4.7,30.08,NW,315,7.0,14.0,71,0.00,,---,0.00,VWS V14.01,2013-01-13 11:20:00,
2013-01-13 05:22:00,2.6,-4.7,30.08,NW,309,9.0,14.0,71,0.00,,OVC030,0.00,VWS V14.01,2013-01-13 11:22:00,
2013-01-13 05:25:00,2.6,-4.7,30.08,NW,315,5.0,11.0,71,0.00,,---,0.00,VWS V14.01,2013-01-13 11:25:00,
2013-01-13 05:30:00,2.6,-4.7,30.08,NW,315,4.0,10.0,71,0.00,,---,0.00,VWS V14.01,2013-01-13 11:30:00,
2013-01-13 05:32:00,2.6,-4.7,30.08,NNW,334,7.0,10.0,71,0.00,,OVC030,0.00,VWS V14.01,2013-01-13 11:32:00,
2013-01-13 05:35:00,2.4,-4.8,30.08,NNW,338,4.0,10.0,71,0.00,,---,0.00,VWS V14.01,2013-01-13 11:35:00,
2013-01-13 05:37:00,2.4,-4.8,30.08,NNW,329,0.0,10.0,71,0.00,,OVC030,0.00,VWS V14.01,2013-01-13 11:37:00,
2013-01-13 05:40:00,2.4,-4.8,30.08,NW,315,6.0,11.0,71,0.00,,---,0.00,VWS V14.01,2013-01-13 11:40:00,
2013-01-13 05:42:00,2.4,-4.8,30.08,NNW,333,7.0,11.0,71,0.00,,OVC030,0.00,VWS V14.01,2013-01-13 11:42:00,
2013-01-13 05:45:00,2.2,-5.0,30.08,NW,315,6.0,11.0,71,0.00,,---,0.00,VWS V14.01,2013-01-13 11:45:00,
2013-01-13 05:50:00,2.2,-5.0,30.08,NW,315,6.0,11.0,71,0.00,,---,0.00,VWS V14.01,2013-01-13 11:50:00,
2013-01-13 05:52:00,2.2,-5.0,30.08,NNW,336,5.0,11.0,71,0.00,,OVC030,0.00,VWS V14.01,2013-01-13 11:52:00,
2013-01-13 05:55:00,2.2,-5.0,30.08,WNW,292,5.0,11.0,71,0.00,,---,0.00,VWS V14.01,2013-01-13 11:55:00,
2013-01-13 05:57:00,2.2,-5.0,30.08,NW,304,5.0,10.0,71,0.00,,OVC030,0.00,VWS V14.01,2013-01-13 11:57:00,
2013-01-13 06:00:00,2.2,-5.0,30.09,NW,315,4.0,7.0,71,0.00,,---,0.00,VWS V14.01,2013-01-13 12:00:00,
2013-01-13 06:02:00,2.2,-5.0,30.09,NNW,339,4.0,7.0,71,0.00,,OVC030,0.00,VWS V14.01,2013-01-13 12:02:00,
2013-01-13 06:05:00,2.0,-5.2,30.09,NW,315,3.0,8.0,71,0.00,,---,0.00,VWS V14.01,2013-01-13 12:05:00,
2013-01-13 06:07:00,2.0,-5.2,30.09,NW,308,5.0,8.0,71,0.00,,OVC030,0.00,VWS V14.01,2013-01-13 12:07:00,
2013-01-13 06:10:00,2.0,-5.2,30.09,NW,315,5.0,9.0,71,0.00,,---,0.00,VWS V14.01,2013-01-13 12:10:00,
2013-01-13 06:12:00,2.0,-5.2,30.09,WNW,301,6.0,9.0,71,0.00,,OVC030,0.00,VWS V14.01,2013-01-13 12:12:00,
2013-01-13 06:15:00,2.0,-5.2,30.09,WNW,292,4.0,9.0,71,0.00,,---,0.00,VWS V14.01,2013-01-13 12:15:00,
2013-01-13 06:17:00,2.0,-5.2,30.09,NW,323,0.0,9.0,71,0.00,,OVC030,0.00,VWS V14.01,2013-01-13 12:17:00,
2013-01-13 06:20:00,2.0,-4.9,30.09,NW,315,4.0,9.0,72,0.00,,---,0.00,VWS V14.01,2013-01-13 12:20:00,
2013-01-13 06:22:00,2.0,-4.9,30.09,NW,309,4.0,9.0,72,0.00,,OVC030,0.00,VWS V14.01,2013-01-13 12:22:00,
2013-01-13 06:25:00,1.8,-5.1,30.09,NW,315,3.0,6.0,72,0.00,,---,0.00,VWS V14.01,2013-01-13 12:25:00,
2013-01-13 06:27:00,1.8,-5.1,30.09,NW,325,4.0,6.0,72,0.00,,OVC030,0.00,VWS V14.01,2013-01-13 12:27:00,
2013-01-13 06:30:00,1.8,-5.1,30.11,NW,315,4.0,7.0,72,0.00,,---,0.00,VWS V14.01,2013-01-13 12:30:00,
2013-01-13 06:32:00,1.8,-5.1,30.11,NW,317,4.0,7.0,72,0.00,,OVC030,0.00,VWS V14.01,2013-01-13 12:32:00,
2013-01-13 06:35:00,1.8,-5.1,30.11,NW,315,3.0,7.0,72,0.00,,---,0.00,VWS V14.01,2013-01-13 12:35:00,
2013-01-13 06:37:00,1.8,-5.1,30.11,NNW,335,4.0,7.0,72,0.00,,OVC030,0.00,VWS V14.01,2013-01-13 12:37:00,
2013-01-13 06:40:00,1.8,-5.1,30.11,NW,315,3.0,7.0,72,0.00,,---,0.00,VWS V14.01,2013-01-13 12:40:00,
2013-01-13 06:42:00,1.8,-5.1,30.11,NW,310,7.0,7.0,72,0.00,,OVC030,0.00,VWS V14.01,2013-01-13 12:42:00,
2013-01-13 06:45:00,1.7,-5.5,30.11,NW,315,3.0,7.0,71,0.00,,---,0.00,VWS V14.01,2013-01-13 12:45:00,
2013-01-13 06:47:00,1.7,-5.5,30.11,NW,313,1.0,7.0,71,0.00,,OVC030,0.00,VWS V14.01,2013-01-13 12:47:00,
2013-01-13 06:50:00,1.5,-5.7,30.11,NW,315,4.0,7.0,71,0.00,,---,0.00,VWS V14.01,2013-01-13 12:50:00,
2013-01-13 06:52:00,1.5,-5.7,30.11,WNW,289,4.0,7.0,71,0.00,,OVC030,0.00,VWS V14.01,2013-01-13 12:52:00,
2013-01-13 06:55:00,1.5,-5.7,30.11,NW,315,3.0,10.0,71,0.00,,---,0.00,VWS V14.01,2013-01-13 12:55:00,
2013-01-13 06:57:00,1.5,-5.7,30.11,NW,316,3.0,10.0,71,0.00,,OVC030,0.00,VWS V14.01,2013-01-13 12:57:00,
2013-01-13 07:00:00,1.5,-5.4,30.12,NW,315,1.0,5.0,72,0.00,,---,0.00,VWS V14.01,2013-01-13 13:00:00,
2013-01-13 07:02:00,1.5,-5.4,30.12,NW,311,5.0,5.0,72,0.00,,SCT032,0.00,VWS V14.01,2013-01-13 13:02:00,
2013-01-13 07:05:00,1.3,-5.9,30.12,NW,315,5.0,10.0,71,0.00,,---,0.00,VWS V14.01,2013-01-13 13:05:00,
2013-01-13 07:07:00,1.3,-5.9,30.12,WNW,303,5.0,10.0,71,0.00,,SCT032,0.00,VWS V14.01,2013-01-13 13:07:00,
2013-01-13 07:10:00,1.3,-5.6,30.12,WNW,292,2.0,6.0,72,0.00,,---,0.00,VWS V14.01,2013-01-13 13:10:00,
2013-01-13 07:12:00,1.3,-5.6,30.12,NW,323,2.0,6.0,72,0.00,,SCT032,0.00,VWS V14.01,2013-01-13 13:12:00,
2013-01-13 07:15:00,1.3,-5.6,30.13,NW,315,3.0,7.0,72,0.00,,---,0.00,VWS V14.01,2013-01-13 13:15:00,
2013-01-13 07:17:00,1.3,-5.6,30.13,NW,305,0.0,7.0,72,0.00,,SCT032,0.00,VWS V14.01,2013-01-13 13:17:00,
2013-01-13 07:20:00,1.3,-5.6,30.13,NW,315,3.0,6.0,72,0.00,,---,0.00,VWS V14.01,2013-01-13 13:20:00,
2013-01-13 07:22:00,1.3,-5.6,30.13,NW,311,1.0,6.0,72,0.00,,SCT032,0.00,VWS V14.01,2013-01-13 13:22:00,
2013-01-13 07:25:00,1.1,-5.8,30.13,NNW,338,4.0,7.0,72,0.00,,---,0.00,VWS V14.01,2013-01-13 13:25:00,
2013-01-13 07:27:00,1.1,-5.8,30.13,NW,319,7.0,7.0,72,0.00,,SCT032,0.00,VWS V14.01,2013-01-13 13:27:00,
2013-01-13 07:30:00,1.1,-5.8,30.14,NW,315,3.0,6.0,72,0.00,,---,0.00,VWS V14.01,2013-01-13 13:30:00,
2013-01-13 07:32:00,1.1,-5.8,30.14,NW,311,3.0,7.0,72,0.00,,SCT032,0.00,VWS V14.01,2013-01-13 13:32:00,
2013-01-13 07:35:00,1.1,-5.8,30.14,NW,315,4.0,7.0,72,0.00,,---,0.00,VWS V14.01,2013-01-13 13:35:00,
2013-01-13 07:37:00,1.1,-5.8,30.14,NW,324,3.0,6.0,72,0.00,,SCT032,0.00,VWS V14.01,2013-01-13 13:37:00,
2013-01-13 07:40:00,0.9,-6.3,30.14,WNW,292,5.0,8.0,71,0.00,,---,0.00,VWS V14.01,2013-01-13 13:40:00,
2013-01-13 07:42:00,0.9,-6.3,30.14,WNW,301,1.0,8.0,71,0.00,,SCT032,0.00,VWS V14.01,2013-01-13 13:42:00,
2013-01-13 07:45:00,1.1,-5.8,30.14,NNW,338,2.0,5.0,72,0.00,,---,0.00,VWS V14.01,2013-01-13 13:45:00,
2013-01-13 07:50:00,1.1,-5.8,30.14,NNW,338,2.0,7.0,72,0.00,,---,0.00,VWS V14.01,2013-01-13 13:50:00,
2013-01-13 07:52:00,1.1,-5.8,30.14,NNW,327,3.0,7.0,72,0.00,,SCT032,0.00,VWS V14.01,2013-01-13 13:52:00,
2013-01-13 07:55:00,1.1,-5.8,30.14,NNW,338,2.0,5.0,72,0.00,,---,0.00,VWS V14.01,2013-01-13 13:55:00,
2013-01-13 07:57:00,1.1,-5.8,30.14,NW,305,3.0,5.0,72,0.00,,SCT032,0.00,VWS V14.01,2013-01-13 13:57:00,
2013-01-13 08:00:00,1.1,-5.8,30.14,NW,315,3.0,7.0,72,0.00,,---,0.00,VWS V14.01,2013-01-13 14:00:00,
2013-01-13 08:02:00,1.1,-5.8,30.14,NW,304,0.0,7.0,72,0.00,,SCT075,0.00,VWS V14.01,2013-01-13 14:02:00,
2013-01-13 08:05:00,1.1,-5.8,30.14,NW,315,3.0,6.0,72,0.00,,---,0.00,VWS V14.01,2013-01-13 14:05:00,
2013-01-13 08:07:00,1.1,-5.8,30.14,NW,318,1.0,6.0,72,0.00,,SCT075,0.00,VWS V14.01,2013-01-13 14:07:00,
2013-01-13 08:10:00,1.1,-6.1,30.14,NW,315,5.0,9.0,71,0.00,,---,0.00,VWS V14.01,2013-01-13 14:10:00,
2013-01-13 08:12:00,1.1,-6.1,30.14,NW,326,3.0,9.0,71,0.00,,SCT075,0.00,VWS V14.01,2013-01-13 14:12:00,
2013-01-13 08:15:00,1.3,-5.9,30.16,NNW,338,4.0,7.0,71,0.00,,---,0.00,VWS V14.01,2013-01-13 14:15:00,
2013-01-13 08:17:00,1.3,-5.9,30.16,NNW,337,0.0,7.0,71,0.00,,SCT075,0.00,VWS V14.01,2013-01-13 14:17:00,
2013-01-13 08:20:00,1.5,-5.4,30.16,NW,315,1.0,5.0,72,0.00,,---,0.00,VWS V14.01,2013-01-13 14:20:00,
2013-01-13 08:22:00,1.5,-5.4,30.16,NW,318,1.0,5.0,72,0.00,,SCT075,0.00,VWS V14.01,2013-01-13 14:22:00,
2013-01-13 08:25:00,1.7,-5.5,30.16,NW,315,3.0,7.0,71,0.00,,---,0.00,VWS V14.01,2013-01-13 14:25:00,
2013-01-13 08:27:00,1.7,-5.5,30.16,WNW,300,5.0,7.0,71,0.00,,SCT075,0.00,VWS V14.01,2013-01-13 14:27:00,
2013-01-13 08:30:00,1.8,-5.4,30.16,WNW,292,4.0,9.0,71,0.00,,---,0.00,VWS V14.01,2013-01-13 14:30:00,
2013-01-13 08:32:00,1.8,-5.4,30.16,NW,306,5.0,9.0,71,0.00,,SCT075,0.00,VWS V14.01,2013-01-13 14:32:00,
2013-01-13 08:35:00,1.8,-5.4,30.16,WNW,292,4.0,7.0,71,0.00,,---,0.00,VWS V14.01,2013-01-13 14:35:00,
2013-01-13 08:37:00,1.8,-5.4,30.16,WNW,301,3.0,7.0,71,0.00,,SCT075,0.00,VWS V14.01,2013-01-13 14:37:00,
2013-01-13 08:40:00,2.0,-5.2,30.16,WNW,292,2.0,7.0,71,0.00,,---,0.00,VWS V14.01,2013-01-13 14:40:00,
2013-01-13 08:42:00,2.0,-5.2,30.16,WNW,288,6.0,7.0,71,0.00,,SCT075,0.00,VWS V14.01,2013-01-13 14:42:00,
2013-01-13 08:45:00,2.0,-5.2,30.16,NW,315,5.0,9.0,71,0.00,,---,0.00,VWS V14.01,2013-01-13 14:45:00,
2013-01-13 08:50:00,2.2,-5.0,30.16,NW,315,2.0,6.0,71,0.00,,---,0.00,VWS V14.01,2013-01-13 14:50:00,
2013-01-13 08:52:00,2.2,-5.0,30.16,NW,317,5.0,6.0,71,0.00,,SCT075,0.00,VWS V14.01,2013-01-13 14:52:00,
2013-01-13 08:55:00,2.2,-5.0,30.16,NW,315,3.0,7.0,71,0.00,,---,0.00,VWS V14.01,2013-01-13 14:55:00,
2013-01-13 08:57:00,2.2,-5.0,30.16,NNW,337,4.0,7.0,71,0.00,,SCT075,0.00,VWS V14.01,2013-01-13 14:57:00,
2013-01-13 09:00:00,2.4,-4.8,30.17,NW,315,3.0,6.0,71,0.00,,---,0.00,VWS V14.01,2013-01-13 15:00:00,
2013-01-13 09:05:00,2.6,-4.7,30.17,NNW,338,5.0,9.0,71,0.00,,---,0.00,VWS V14.01,2013-01-13 15:05:00,
2013-01-13 09:07:00,2.6,-4.7,30.17,WNW,300,5.0,9.0,71,0.00,,OVC075,0.00,VWS V14.01,2013-01-13 15:07:00,
2013-01-13 09:10:00,2.6,-4.7,30.17,WNW,292,3.0,6.0,71,0.00,,---,0.00,VWS V14.01,2013-01-13 15:10:00,
2013-01-13 09:12:00,2.6,-4.7,30.17,West,279,4.0,6.0,71,0.00,,OVC075,0.00,VWS V14.01,2013-01-13 15:12:00,
2013-01-13 09:15:00,2.8,-4.4,30.17,WNW,292,4.0,9.0,71,0.00,,---,0.00,VWS V14.01,2013-01-13 15:15:00,
2013-01-13 09:17:00,2.8,-4.4,30.17,WNW,301,0.0,9.0,71,0.00,,OVC075,0.00,VWS V14.01,2013-01-13 15:17:00,
2013-01-13 09:20:00,3.0,-4.0,30.17,WNW,292,3.0,9.0,72,0.00,,---,0.00,VWS V14.01,2013-01-13 15:20:00,
2013-01-13 09:22:00,3.0,-4.0,30.17,West,281,7.0,9.0,72,0.00,,OVC075,0.00,VWS V14.01,2013-01-13 15:22:00,
2013-01-13 09:25:00,3.0,-4.3,30.17,WNW,292,4.0,10.0,71,0.00,,---,0.00,VWS V14.01,2013-01-13 15:25:00,
2013-01-13 09:27:00,3.0,-4.3,30.17,NW,315,5.0,9.0,71,0.00,,OVC075,0.00,VWS V14.01,2013-01-13 15:27:00,
2013-01-13 09:30:00,3.0,-4.3,30.17,WNW,292,2.0,8.0,71,0.00,,---,0.00,VWS V14.01,2013-01-13 15:30:00,
2013-01-13 09:35:00,3.0,-4.3,30.17,WNW,292,3.0,7.0,71,0.00,,---,0.00,VWS V14.01,2013-01-13 15:35:00,
2013-01-13 09:37:00,3.0,-4.3,30.17,NW,320,5.0,7.0,71,0.00,,OVC075,0.00,VWS V14.01,2013-01-13 15:37:00,
2013-01-13 09:40:00,3.0,-4.3,30.17,NW,315,1.0,4.0,71,0.00,,---,0.00,VWS V14.01,2013-01-13 15:40:00,
2013-01-13 09:42:00,3.0,-4.3,30.17,WNW,297,0.0,5.0,71,0.00,,OVC075,0.00,VWS V14.01,2013-01-13 15:42:00,
2013-01-13 09:45:00,3.2,-4.1,30.18,West,270,2.0,8.0,71,0.00,,---,0.00,VWS V14.01,2013-01-13 15:45:00,
2013-01-13 09:47:00,3.2,-4.1,30.18,West,281,4.0,8.0,71,0.00,,OVC075,0.00,VWS V14.01,2013-01-13 15:47:00,
2013-01-13 09:50:00,3.4,-3.9,30.18,WNW,292,3.0,6.0,71,0.00,,---,0.00,VWS V14.01,2013-01-13 15:50:00,
2013-01-13 09:52:00,3.4,-3.9,30.18,NW,312,0.0,6.0,71,0.00,,OVC075,0.00,VWS V14.01,2013-01-13 15:52:00,
2013-01-13 09:55:00,3.4,-3.9,30.18,NW,315,2.0,6.0,71,0.00,,---,0.00,VWS V14.01,2013-01-13 15:55:00,
2013-01-13 09:57:00,3.4,-3.9,30.18,NW,309,0.0,6.0,71,0.00,,OVC075,0.00,VWS V14.01,2013-01-13 15:57:00,
2013-01-13 10:00:00,3.5,-3.8,30.17,NW,315,0.0,0.0,71,0.00,,---,0.00,VWS V14.01,2013-01-13 16:00:00,
2013-01-13 10:05:00,3.9,-3.1,30.17,NW,315,0.0,0.0,72,0.00,,---,0.00,VWS V14.01,2013-01-13 16:05:00,
2013-01-13 10:07:00,3.9,-3.1,30.17,NNW,340,0.0,0.0,72,0.00,,,0.00,VWS V14.01,2013-01-13 16:07:00,
2013-01-13 10:10:00,3.9,-3.4,30.17,WNW,292,3.0,9.0,71,0.00,,---,0.00,VWS V14.01,2013-01-13 16:10:00,
2013-01-13 10:12:00,3.9,-3.4,30.17,WNW,296,5.0,9.0,71,0.00,,,0.00,VWS V14.01,2013-01-13 16:12:00,
2013-01-13 10:15:00,3.9,-3.4,30.17,WNW,292,5.0,9.0,71,0.00,,---,0.00,VWS V14.01,2013-01-13 16:15:00,
2013-01-13 10:20:00,4.1,-3.2,30.17,WNW,292,4.0,9.0,71,0.00,,---,0.00,VWS V14.01,2013-01-13 16:20:00,
2013-01-13 10:22:00,4.1,-3.2,30.17,WNW,288,6.0,9.0,71,0.00,,,0.00,VWS V14.01,2013-01-13 16:22:00,
2013-01-13 10:25:00,4.3,-3.0,30.17,WNW,292,4.0,8.0,71,0.00,,---,0.00,VWS V14.01,2013-01-13 16:25:00,
2013-01-13 10:27:00,4.3,-3.0,30.17,NW,319,0.0,8.0,71,0.00,,,0.00,VWS V14.01,2013-01-13 16:27:00,
2013-01-13 10:30:00,4.5,-2.8,30.16,WNW,292,3.0,7.0,71,0.00,,---,0.00,VWS V14.01,2013-01-13 16:30:00,
2013-01-13 10:32:00,4.5,-2.8,30.16,WNW,302,0.0,7.0,71,0.00,,,0.00,VWS V14.01,2013-01-13 16:32:00,
2013-01-13 10:35:00,4.5,-2.8,30.16,NW,315,2.0,6.0,71,0.00,,---,0.00,VWS V14.01,2013-01-13 16:35:00,
2013-01-13 10:37:00,4.5,-2.8,30.16,NW,315,4.0,6.0,71,0.00,,,0.00,VWS V14.01,2013-01-13 16:37:00,
2013-01-13 10:40:00,4.7,-2.6,30.16,WNW,292,2.0,7.0,71,0.00,,---,0.00,VWS V14.01,2013-01-13 16:40:00,
2013-01-13 10:42:00,4.7,-2.6,30.16,West,281,4.0,7.0,71,0.00,,,0.00,VWS V14.01,2013-01-13 16:42:00,
2013-01-13 10:45:00,4.7,-2.6,30.14,WNW,292,5.0,10.0,71,0.00,,---,0.00,VWS V14.01,2013-01-13 16:45:00,
2013-01-13 10:47:00,4.7,-2.6,30.14,NNW,338,0.0,10.0,71,0.00,,,0.00,VWS V14.01,2013-01-13 16:47:00,
2013-01-13 10:50:00,4.7,-2.6,30.14,WNW,292,4.0,10.0,71,0.00,,---,0.00,VWS V14.01,2013-01-13 16:50:00,
2013-01-13 10:52:00,4.7,-2.6,30.14,WNW,292,10.0,10.0,71,0.00,,,0.00,VWS V14.01,2013-01-13 16:52:00,
2013-01-13 10:55:00,4.8,-2.5,30.14,WNW,292,6.0,10.0,71,0.00,,---,0.00,VWS V14.01,2013-01-13 16:55:00,
2013-01-13 11:00:00,4.8,-2.5,30.13,WNW,292,3.0,11.0,71,0.00,,---,0.00,VWS V14.01,2013-01-13 17:00:00,
2013-01-13 11:02:00,4.8,-2.5,30.13,WNW,293,11.0,11.0,71,0.00,,,0.00,VWS V14.01,2013-01-13 17:02:00,
2013-01-13 11:05:00,5.0,-2.3,30.13,WNW,292,5.0,10.0,71,0.00,,---,0.00,VWS V14.01,2013-01-13 17:05:00,
2013-01-13 11:07:00,5.0,-2.3,30.13,NW,313,10.0,10.0,71,0.00,,,0.00,VWS V14.01,2013-01-13 17:07:00,
2013-01-13 11:10:00,4.8,-2.5,30.13,WNW,292,6.0,11.0,71,0.00,,---,0.00,VWS V14.01,2013-01-13 17:10:00,
2013-01-13 11:15:00,5.0,-2.3,30.12,NNW,338,6.0,10.0,71,0.00,,---,0.00,VWS V14.01,2013-01-13 17:15:00,
2013-01-13 11:17:00,5.0,-2.3,30.12,NNW,344,10.0,10.0,71,0.00,,,0.00,VWS V14.01,2013-01-13 17:17:00,
2013-01-13 11:20:00,5.0,-2.3,30.12,NNW,338,5.0,10.0,71,0.00,,---,0.00,VWS V14.01,2013-01-13 17:20:00,
2013-01-13 11:22:00,5.0,-2.3,30.12,NW,319,2.0,10.0,71,0.00,,,0.00,VWS V14.01,2013-01-13 17:22:00,
2013-01-13 11:25:00,5.2,-2.1,30.12,NNW,338,7.0,11.0,71,0.00,,---,0.00,VWS V14.01,2013-01-13 17:25:00,
2013-01-13 11:30:00,5.2,-2.1,30.11,NNW,338,5.0,10.0,71,0.00,,---,0.00,VWS V14.01,2013-01-13 17:30:00,
2013-01-13 11:32:00,5.2,-2.1,30.11,West,268,6.0,10.0,71,0.00,,,0.00,VWS V14.01,2013-01-13 17:32:00,
2013-01-13 11:35:00,5.4,-1.9,30.11,NW,315,5.0,10.0,71,0.00,,---,0.00,VWS V14.01,2013-01-13 17:35:00,
2013-01-13 11:37:00,5.4,-1.9,30.11,NNW,331,0.0,10.0,71,0.00,,,0.00,VWS V14.01,2013-01-13 17:37:00,
2013-01-13 11:40:00,5.4,-1.9,30.11,NNW,338,5.0,11.0,71,0.00,,---,0.00,VWS V14.01,2013-01-13 17:40:00,
2013-01-13 11:45:00,5.4,-1.9,30.11,NW,315,7.0,13.0,71,0.00,,---,0.00,VWS V14.01,2013-01-13 17:45:00,
2013-01-13 11:47:00,5.4,-1.9,30.11,WNW,292,10.0,13.0,71,0.00,,,0.00,VWS V14.01,2013-01-13 17:47:00,
2013-01-13 11:50:00,5.4,-1.9,30.11,NNW,338,5.0,10.0,71,0.00,,---,0.00,VWS V14.01,2013-01-13 17:50:00,
2013-01-13 11:52:00,5.4,-1.9,30.11,NNW,340,2.0,10.0,71,0.00,,,0.00,VWS V14.01,2013-01-13 17:52:00,
2013-01-13 11:55:00,5.4,-1.9,30.11,NNW,338,4.0,9.0,71,0.00,,---,0.00,VWS V14.01,2013-01-13 17:55:00,
2013-01-13 12:00:00,5.8,-1.6,30.11,NW,315,0.0,1.0,71,0.00,,---,0.00,VWS V14.01,2013-01-13 18:00:00,
2013-01-13 12:02:00,5.8,-1.6,30.11,NW,325,0.0,1.0,71,0.00,,,0.00,VWS V14.01,2013-01-13 18:02:00,
2013-01-13 12:05:00,6.0,-1.4,30.11,NNW,338,5.0,10.0,71,0.00,,---,0.00,VWS V14.01,2013-01-13 18:05:00,
2013-01-13 12:10:00,6.0,-1.4,30.11,NW,315,5.0,12.0,71,0.00,,---,0.00,VWS V14.01,2013-01-13 18:10:00,
2013-01-13 12:12:00,6.0,-1.4,30.11,NW,319,6.0,12.0,71,0.00,,,0.00,VWS V14.01,2013-01-13 18:12:00,
2013-01-13 12:15:00,6.1,-1.3,30.10,NW,315,4.0,9.0,71,0.00,,---,0.00,VWS V14.01,2013-01-13 18:15:00,
2013-01-13 12:20:00,6.1,-1.3,30.10,NW,315,3.0,9.0,71,0.00,,---,0.00,VWS V14.01,2013-01-13 18:20:00,
2013-01-13 12:22:00,6.1,-1.3,30.10,NNW,327,0.0,9.0,71,0.00,,,0.00,VWS V14.01,2013-01-13 18:22:00,
2013-01-13 12:25:00,6.1,-1.3,30.10,NW,315,2.0,8.0,71,0.00,,---,0.00,VWS V14.01,2013-01-13 18:25:00,
2013-01-13 12:27:00,6.1,-1.3,30.10,NW,315,0.0,8.0,71,0.00,,,0.00,VWS V14.01,2013-01-13 18:27:00,
2013-01-13 12:30:00,6.3,-1.1,30.10,WNW,292,1.0,7.0,71,0.00,,---,0.00,VWS V14.01,2013-01-13 18:30:00,
2013-01-13 12:32:00,6.3,-1.1,30.10,NNW,329,7.0,7.0,71,0.00,,,0.00,VWS V14.01,2013-01-13 18:32:00,
2013-01-13 12:35:00,6.5,-0.6,30.10,WNW,292,2.0,8.0,72,0.00,,---,0.00,VWS V14.01,2013-01-13 18:35:00,
2013-01-13 12:37:00,6.5,-0.6,30.10,WNW,286,5.0,7.0,72,0.00,,,0.00,VWS V14.01,2013-01-13 18:37:00,
2013-01-13 12:40:00,6.7,-0.4,30.10,WNW,292,4.0,9.0,72,0.00,,---,0.00,VWS V14.01,2013-01-13 18:40:00,
2013-01-13 12:42:00,6.7,-0.4,30.10,NNW,333,6.0,9.0,72,0.00,,,0.00,VWS V14.01,2013-01-13 18:42:00,
2013-01-13 12:45:00,6.9,-0.2,30.10,WNW,292,3.0,7.0,72,0.00,,---,0.00,VWS V14.01,2013-01-13 18:45:00,
2013-01-13 12:47:00,6.9,-0.2,30.10,WNW,298,5.0,7.0,72,0.00,,,0.00,VWS V14.01,2013-01-13 18:47:00,
2013-01-13 12:50:00,6.9,-0.2,30.10,WNW,292,4.0,8.0,72,0.00,,---,0.00,VWS V14.01,2013-01-13 18:50:00,
2013-01-13 12:52:00,6.9,-0.2,30.10,West,267,5.0,8.0,72,0.00,,,0.00,VWS V14.01,2013-01-13 18:52:00,
2013-01-13 12:55:00,7.0,-0.1,30.10,West,270,6.0,11.0,72,0.00,,---,0.00,VWS V14.01,2013-01-13 18:55:00,
2013-01-13 13:00:00,6.9,-0.2,30.10,West,270,4.0,10.0,72,0.00,,---,0.00,VWS V14.01,2013-01-13 19:00:00,
2013-01-13 13:02:00,6.9,-0.2,30.10,WNW,282,6.0,10.0,72,0.00,,,0.00,VWS V14.01,2013-01-13 19:02:00,
2013-01-13 13:05:00,6.9,-0.2,30.10,WNW,292,5.0,10.0,72,0.00,,---,0.00,VWS V14.01,2013-01-13 19:05:00,
2013-01-13 13:07:00,6.9,-0.2,30.10,WNW,282,4.0,10.0,72,0.00,,,0.00,VWS V14.01,2013-01-13 19:07:00,
2013-01-13 13:10:00,7.0,-0.1,30.10,West,270,5.0,9.0,72,0.00,,---,0.00,VWS V14.01,2013-01-13 19:10:00,
2013-01-13 13:12:00,7.0,-0.1,30.10,WNW,286,5.0,9.0,72,0.00,,,0.00,VWS V14.01,2013-01-13 19:12:00,
2013-01-13 13:15:00,7.0,-0.1,30.10,WNW,292,5.0,11.0,72,0.00,,---,0.00,VWS V14.01,2013-01-13 19:15:00,
2013-01-13 13:20:00,7.0,-0.1,30.10,West,270,5.0,10.0,72,0.00,,---,0.00,VWS V14.01,2013-01-13 19:20:00,
2013-01-13 13:22:00,7.0,-0.1,30.10,West,277,7.0,10.0,72,0.00,,,0.00,VWS V14.01,2013-01-13 19:22:00,
2013-01-13 13:25:00,7.0,-0.1,30.10,WNW,292,5.0,9.0,72,0.00,,---,0.00,VWS V14.01,2013-01-13 19:25:00,
2013-01-13 13:27:00,7.0,-0.1,30.10,NW,323,5.0,9.0,72,0.00,,,0.00,VWS V14.01,2013-01-13 19:27:00,
2013-01-13 13:30:00,7.2,0.1,30.11,WNW,292,5.0,7.0,72,0.00,,---,0.00,VWS V14.01,2013-01-13 19:30:00,
2013-01-13 13:32:00,7.2,0.1,30.11,West,273,4.0,7.0,72,0.00,,,0.00,VWS V14.01,2013-01-13 19:32:00,
2013-01-13 13:35:00,7.2,-0.2,30.11,WNW,292,6.0,11.0,71,0.00,,---,0.00,VWS V14.01,2013-01-13 19:35:00,
2013-01-13 13:37:00,7.2,-0.2,30.11,WNW,288,4.0,11.0,71,0.00,,,0.00,VWS V14.01,2013-01-13 19:37:00,
2013-01-13 13:40:00,7.0,-0.4,30.11,WNW,292,5.0,10.0,71,0.00,,---,0.00,VWS V14.01,2013-01-13 19:40:00,
2013-01-13 13:45:00,7.2,-0.2,30.11,WNW,292,7.0,12.0,71,0.00,,---,0.00,VWS V14.01,2013-01-13 19:45:00,
2013-01-13 13:47:00,7.2,-0.2,30.11,West,281,10.0,12.0,71,0.00,,,0.00,VWS V14.01,2013-01-13 19:47:00,
2013-01-13 13:50:00,7.2,-0.2,30.11,WNW,292,6.0,11.0,71,0.00,,---,0.00,VWS V14.01,2013-01-13 19:50:00,
2013-01-13 13:52:00,7.2,-0.2,30.11,WNW,285,3.0,11.0,71,0.00,,,0.00,VWS V14.01,2013-01-13 19:52:00,
2013-01-13 13:55:00,7.2,-0.2,30.11,West,270,6.0,11.0,71,0.00,,---,0.00,VWS V14.01,2013-01-13 19:55:00,
2013-01-13 14:00:00,7.4,0.0,30.11,WNW,292,5.0,10.0,71,0.00,,---,0.00,VWS V14.01,2013-01-13 20:00:00,
2013-01-13 14:02:00,7.4,0.0,30.11,West,276,5.0,10.0,71,0.00,,,0.00,VWS V14.01,2013-01-13 20:02:00,
2013-01-13 14:05:00,7.6,0.2,30.11,West,270,7.0,11.0,71,0.00,,---,0.00,VWS V14.01,2013-01-13 20:05:00,
2013-01-13 14:07:00,7.6,0.2,30.11,WNW,292,6.0,11.0,71,0.00,,,0.00,VWS V14.01,2013-01-13 20:07:00,
2013-01-13 14:10:00,7.4,-0.3,30.11,WNW,292,6.0,12.0,70,0.00,,---,0.00,VWS V14.01,2013-01-13 20:10:00,
2013-01-13 14:12:00,7.4,-0.3,30.11,NW,315,4.0,11.0,70,0.00,,,0.00,VWS V14.01,2013-01-13 20:12:00,
2013-01-13 14:15:00,7.2,-0.8,30.11,WNW,292,8.0,14.0,69,0.00,,---,0.00,VWS V14.01,2013-01-13 20:15:00,
2013-01-13 14:17:00,7.2,-0.8,30.11,WSW,253,7.0,14.0,69,0.00,,,0.00,VWS V14.01,2013-01-13 20:17:00,
2013-01-13 14:20:00,7.2,-0.8,30.11,West,270,7.0,12.0,69,0.00,,---,0.00,VWS V14.01,2013-01-13 20:20:00,
2013-01-13 14:22:00,7.2,-0.8,30.11,WNW,284,6.0,12.0,69,0.00,,,0.00,VWS V14.01,2013-01-13 20:22:00,
2013-01-13 14:25:00,6.9,-1.1,30.11,WNW,292,6.0,12.0,69,0.00,,---,0.00,VWS V14.01,2013-01-13 20:25:00,
2013-01-13 14:27:00,6.9,-1.1,30.11,WNW,303,4.0,12.0,69,0.00,,,0.00,VWS V14.01,2013-01-13 20:27:00,
2013-01-13 14:30:00,7.0,-0.7,30.12,WNW,292,4.0,10.0,70,0.00,,---,0.00,VWS V14.01,2013-01-13 20:30:00,
2013-01-13 14:32:00,7.0,-0.7,30.12,West,276,5.0,10.0,70,0.00,,,0.00,VWS V14.01,2013-01-13 20:32:00,
2013-01-13 14:35:00,7.2,-0.5,30.12,WNW,292,6.0,11.0,70,0.00,,---,0.00,VWS V14.01,2013-01-13 20:35:00,
2013-01-13 14:37:00,7.2,-0.5,30.12,WNW,302,9.0,11.0,70,0.00,,,0.00,VWS V14.01,2013-01-13 20:37:00,
2013-01-13 14:40:00,7.2,-0.8,30.12,WNW,292,5.0,11.0,69,0.00,,---,0.00,VWS V14.01,2013-01-13 20:40:00,
2013-01-13 14:45:00,7.2,-0.8,30.13,West,270,7.0,12.0,69,0.00,,---,0.00,VWS V14.01,2013-01-13 20:45:00,
2013-01-13 14:47:00,7.2,-0.8,30.13,NW,304,7.0,12.0,69,0.00,,,0.00,VWS V14.01,2013-01-13 20:47:00,
2013-01-13 14:50:00,7.2,-0.8,30.13,WNW,292,6.0,13.0,69,0.00,,---,0.00,VWS V14.01,2013-01-13 20:50:00,
2013-01-13 14:52:00,7.2,-0.8,30.13,WNW,292,4.0,13.0,69,0.00,,,0.00,VWS V14.01,2013-01-13 20:52:00,
2013-01-13 14:55:00,7.2,-0.8,30.13,WNW,292,6.0,10.0,69,0.00,,---,0.00,VWS V14.01,2013-01-13 20:55:00,
2013-01-13 14:57:00,7.2,-0.8,30.13,West,277,5.0,10.0,69,0.00,,,0.00,VWS V14.01,2013-01-13 20:57:00,
2013-01-13 15:00:00,7.2,-1.1,30.13,West,270,8.0,12.0,68,0.00,,---,0.00,VWS V14.01,2013-01-13 21:00:00,
2013-01-13 15:05:00,7.2,-0.8,30.13,WNW,292,4.0,11.0,69,0.00,,---,0.00,VWS V14.01,2013-01-13 21:05:00,
2013-01-13 15:07:00,7.2,-0.8,30.13,West,279,0.0,11.0,69,0.00,,,0.00,VWS V14.01,2013-01-13 21:07:00,
2013-01-13 15:10:00,7.2,-1.1,30.13,NW,315,4.0,11.0,68,0.00,,---,0.00,VWS V14.01,2013-01-13 21:10:00,
2013-01-13 15:12:00,7.2,-1.1,30.13,WNW,302,5.0,11.0,68,0.00,,,0.00,VWS V14.01,2013-01-13 21:12:00,
2013-01-13 15:15:00,7.2,-1.1,30.14,WNW,292,5.0,10.0,68,0.00,,---,0.00,VWS V14.01,2013-01-13 21:15:00,
2013-01-13 15:17:00,7.2,-1.1,30.14,WNW,297,6.0,10.0,68,0.00,,,0.00,VWS V14.01,2013-01-13 21:17:00,
2013-01-13 15:20:00,7.2,-0.8,30.14,WNW,292,6.0,11.0,69,0.00,,---,0.00,VWS V14.01,2013-01-13 21:20:00,
2013-01-13 15:22:00,7.2,-0.8,30.14,WNW,285,4.0,11.0,69,0.00,,,0.00,VWS V14.01,2013-01-13 21:22:00,
2013-01-13 15:25:00,7.2,-0.8,30.14,WNW,292,4.0,9.0,69,0.00,,---,0.00,VWS V14.01,2013-01-13 21:25:00,
2013-01-13 15:27:00,7.2,-0.8,30.14,West,269,0.0,9.0,69,0.00,,,0.00,VWS V14.01,2013-01-13 21:27:00,
2013-01-13 15:30:00,7.4,-0.6,30.14,West,270,5.0,11.0,69,0.00,,---,0.00,VWS V14.01,2013-01-13 21:30:00,
2013-01-13 15:32:00,7.4,-0.6,30.14,WNW,288,8.0,11.0,69,0.00,,,0.00,VWS V14.01,2013-01-13 21:32:00,
2013-01-13 15:35:00,7.4,-0.6,30.14,West,270,5.0,12.0,69,0.00,,---,0.00,VWS V14.01,2013-01-13 21:35:00,
2013-01-13 15:40:00,7.6,-0.1,30.14,WNW,292,2.0,10.0,70,0.00,,---,0.00,VWS V14.01,2013-01-13 21:40:00,
2013-01-13 15:42:00,7.6,-0.1,30.14,West,279,2.0,9.0,70,0.00,,,0.00,VWS V14.01,2013-01-13 21:42:00,
2013-01-13 15:45:00,7.7,0.0,30.15,West,270,3.0,11.0,70,0.00,,---,0.00,VWS V14.01,2013-01-13 21:45:00,
2013-01-13 15:50:00,7.7,0.0,30.15,WNW,292,5.0,11.0,70,0.00,,---,0.00,VWS V14.01,2013-01-13 21:50:00,
2013-01-13 15:52:00,7.7,0.0,30.15,WNW,291,0.0,11.0,70,0.00,,OVC075,0.00,VWS V14.01,2013-01-13 21:52:00,
2013-01-13 15:55:00,7.9,0.2,30.15,WNW,292,4.0,10.0,70,0.00,,---,0.00,VWS V14.01,2013-01-13 21:55:00,
2013-01-13 15:57:00,7.9,0.2,30.15,WNW,282,0.0,10.0,70,0.00,,OVC075,0.00,VWS V14.01,2013-01-13 21:57:00,
2013-01-13 16:00:00,7.9,-0.1,30.15,West,270,3.0,9.0,69,0.00,,---,0.00,VWS V14.01,2013-01-13 22:00:00,
2013-01-13 16:02:00,7.9,-0.1,30.15,WNW,290,9.0,9.0,69,0.00,,OVC075,0.00,VWS V14.01,2013-01-13 22:02:00,
2013-01-13 16:05:00,8.1,0.1,30.15,WNW,292,4.0,9.0,69,0.00,,---,0.00,VWS V14.01,2013-01-13 22:05:00,
2013-01-13 16:07:00,8.1,0.1,30.15,WNW,288,5.0,9.0,69,0.00,,OVC075,0.00,VWS V14.01,2013-01-13 22:07:00,
2013-01-13 16:10:00,7.9,-0.4,30.15,WNW,292,5.0,11.0,68,0.00,,---,0.00,VWS V14.01,2013-01-13 22:10:00,
2013-01-13 16:15:00,7.9,-0.4,30.16,WNW,292,5.0,13.0,68,0.00,,---,0.00,VWS V14.01,2013-01-13 22:15:00,
2013-01-13 16:17:00,7.9,-0.4,30.16,WNW,298,4.0,10.0,68,0.00,,OVC075,0.00,VWS V14.01,2013-01-13 22:17:00,
2013-01-13 16:20:00,8.1,-0.3,30.16,West,270,5.0,10.0,68,0.00,,---,0.00,VWS V14.01,2013-01-13 22:20:00,
2013-01-13 16:22:00,8.1,-0.3,30.16,West,281,6.0,10.0,68,0.00,,OVC075,0.00,VWS V14.01,2013-01-13 22:22:00,
2013-01-13 16:25:00,8.1,-0.3,30.16,WNW,292,6.0,11.0,68,0.00,,---,0.00,VWS V14.01,2013-01-13 22:25:00,
2013-01-13 16:27:00,8.1,-0.3,30.16,NW,310,3.0,11.0,68,0.00,,OVC075,0.00,VWS V14.01,2013-01-13 22:27:00,
2013-01-13 16:30:00,8.1,-0.3,30.16,NW,315,5.0,11.0,68,0.00,,---,0.00,VWS V14.01,2013-01-13 22:30:00,
2013-01-13 16:32:00,8.1,-0.3,30.16,NW,304,10.0,10.0,68,0.00,,OVC075,0.00,VWS V14.01,2013-01-13 22:32:00,
2013-01-13 16:35:00,7.9,-0.4,30.16,WNW,292,7.0,11.0,68,0.00,,---,0.00,VWS V14.01,2013-01-13 22:35:00,
2013-01-13 16:40:00,7.9,-0.4,30.16,WNW,292,4.0,9.0,68,0.00,,---,0.00,VWS V14.01,2013-01-13 22:40:00,
2013-01-13 16:42:00,7.9,-0.4,30.16,WNW,285,4.0,9.0,68,0.00,,OVC075,0.00,VWS V14.01,2013-01-13 22:42:00,
2013-01-13 16:45:00,7.9,-0.4,30.16,WNW,292,4.0,10.0,68,0.00,,---,0.00,VWS V14.01,2013-01-13 22:45:00,
2013-01-13 16:47:00,7.9,-0.4,30.16,WNW,284,5.0,10.0,68,0.00,,OVC075,0.00,VWS V14.01,2013-01-13 22:47:00,
2013-01-13 16:50:00,7.7,-1.0,30.16,WNW,292,7.0,11.0,67,0.00,,---,0.00,VWS V14.01,2013-01-13 22:50:00,
2013-01-13 16:52:00,7.7,-1.0,30.16,WNW,291,5.0,11.0,67,0.00,,OVC075,0.00,VWS V14.01,2013-01-13 22:52:00,
2013-01-13 16:55:00,7.7,-0.6,30.16,WNW,292,4.0,7.0,68,0.00,,---,0.00,VWS V14.01,2013-01-13 22:55:00,
2013-01-13 16:57:00,7.7,-0.6,30.16,WNW,285,3.0,7.0,68,0.00,,OVC075,0.00,VWS V14.01,2013-01-13 22:57:00,
2013-01-13 17:00:00,7.7,-0.6,30.17,WNW,292,5.0,7.0,68,0.00,,---,0.00,VWS V14.01,2013-01-13 23:00:00,
2013-01-13 17:02:00,7.7,-0.6,30.17,WNW,296,4.0,7.0,68,0.00,,OVC075,0.00,VWS V14.01,2013-01-13 23:02:00,
2013-01-13 17:05:00,7.6,-0.7,30.17,West,270,4.0,9.0,68,0.00,,---,0.00,VWS V14.01,2013-01-13 23:05:00,
2013-01-13 17:07:00,7.6,-0.7,30.17,WNW,299,6.0,9.0,68,0.00,,OVC075,0.00,VWS V14.01,2013-01-13 23:07:00,
2013-01-13 17:10:00,7.6,-0.7,30.17,WNW,292,5.0,9.0,68,0.00,,---,0.00,VWS V14.01,2013-01-13 23:10:00,
2013-01-13 17:12:00,7.6,-0.7,30.17,West,277,4.0,9.0,68,0.00,,OVC075,0.00,VWS V14.01,2013-01-13 23:12:00,
2013-01-13 17:15:00,7.4,-0.9,30.17,WNW,292,5.0,10.0,68,0.00,,---,0.00,VWS V14.01,2013-01-13 23:15:00,
2013-01-13 17:17:00,7.4,-0.9,30.17,WSW,257,4.0,10.0,68,0.00,,OVC075,0.00,VWS V14.01,2013-01-13 23:17:00,
2013-01-13 17:20:00,7.4,-0.9,30.17,WNW,292,5.0,11.0,68,0.00,,---,0.00,VWS V14.01,2013-01-13 23:20:00,
2013-01-13 17:22:00,7.4,-0.9,30.17,West,272,7.0,11.0,68,0.00,,OVC075,0.00,VWS V14.01,2013-01-13 23:22:00,
2013-01-13 17:25:00,7.4,-0.9,30.17,West,270,6.0,12.0,68,0.00,,---,0.00,VWS V14.01,2013-01-13 23:25:00,
2013-01-13 17:27:00,7.4,-0.9,30.17,NW,311,9.0,10.0,68,0.00,,OVC075,0.00,VWS V14.01,2013-01-13 23:27:00,
2013-01-13 17:30:00,7.2,-1.1,30.17,WNW,292,5.0,11.0,68,0.00,,---,0.00,VWS V14.01,2013-01-13 23:30:00,
2013-01-13 17:32:00,7.2,-1.1,30.17,WNW,299,5.0,10.0,68,0.00,,OVC075,0.00,VWS V14.01,2013-01-13 23:32:00,
2013-01-13 17:35:00,7.2,-1.1,30.17,WNW,292,5.0,10.0,68,0.00,,---,0.00,VWS V14.01,2013-01-13 23:35:00,
2013-01-13 17:37:00,7.2,-1.1,30.17,West,267,3.0,10.0,68,0.00,,OVC075,0.00,VWS V14.01,2013-01-13 23:37:00,
2013-01-13 17:40:00,7.0,-1.3,30.17,West,270,4.0,10.0,68,0.00,,---,0.00,VWS V14.01,2013-01-13 23:40:00,
2013-01-13 17:42:00,7.0,-1.3,30.17,West,259,0.0,10.0,68,0.00,,OVC075,0.00,VWS V14.01,2013-01-13 23:42:00,
2013-01-13 17:45:00,6.9,-1.4,30.18,West,270,6.0,14.0,68,0.00,,---,0.00,VWS V14.01,2013-01-13 23:45:00,
2013-01-13 17:47:00,6.9,-1.4,30.18,WNW,291,12.0,14.0,68,0.00,,OVC075,0.00,VWS V14.01,2013-01-13 23:47:00,
2013-01-13 17:50:00,6.7,-1.6,30.18,West,270,6.0,12.0,68,0.00,,---,0.00,VWS V14.01,2013-01-13 23:50:00,
2013-01-13 17:52:00,6.7,-1.6,30.18,WNW,286,5.0,12.0,68,0.00,,OVC075,0.00,VWS V14.01,2013-01-13 23:52:00,
2013-01-13 17:55:00,6.5,-1.5,30.18,West,270,5.0,11.0,69,0.00,,---,0.00,VWS V14.01,2013-01-13 23:55:00,
2013-01-13 17:57:00,6.5,-1.5,30.18,West,259,6.0,11.0,69,0.00,,OVC075,0.00,VWS V14.01,2013-01-13 23:57:00,
2013-01-13 18:00:00,6.3,-1.7,30.18,West,270,7.0,11.0,69,0.00,,---,0.00,VWS V14.01,2013-01-14 00:00:00,
2013-01-13 18:02:00,6.3,-1.7,30.18,West,273,11.0,11.0,69,0.00,,CLR,0.00,VWS V14.01,2013-01-14 00:02:00,
2013-01-13 18:05:00,6.1,-1.9,30.18,West,270,7.0,14.0,69,0.00,,---,0.00,VWS V14.01,2013-01-14 00:05:00,
2013-01-13 18:07:00,6.1,-1.9,30.18,WNW,294,5.0,14.0,69,0.00,,CLR,0.00,VWS V14.01,2013-01-14 00:07:00,
2013-01-13 18:10:00,6.0,-2.0,30.18,WNW,292,7.0,13.0,69,0.00,,---,0.00,VWS V14.01,2013-01-14 00:10:00,
2013-01-13 18:12:00,6.0,-2.0,30.18,West,276,10.0,13.0,69,0.00,,CLR,0.00,VWS V14.01,2013-01-14 00:12:00,
2013-01-13 18:15:00,6.0,-2.0,30.18,West,270,6.0,11.0,69,0.00,,---,0.00,VWS V14.01,2013-01-14 00:15:00,
2013-01-13 18:17:00,6.0,-2.0,30.18,WNW,290,5.0,11.0,69,0.00,,CLR,0.00,VWS V14.01,2013-01-14 00:17:00,
2013-01-13 18:20:00,6.0,-2.0,30.18,WNW,292,5.0,11.0,69,0.00,,---,0.00,VWS V14.01,2013-01-14 00:20:00,
2013-01-13 18:25:00,5.8,-2.2,30.18,West,270,5.0,11.0,69,0.00,,---,0.00,VWS V14.01,2013-01-14 00:25:00,
2013-01-13 18:27:00,5.8,-2.2,30.18,WSW,257,9.0,11.0,69,0.00,,CLR,0.00,VWS V14.01,2013-01-14 00:27:00,
2013-01-13 18:30:00,5.8,-2.2,30.19,WNW,292,5.0,11.0,69,0.00,,---,0.00,VWS V14.01,2013-01-14 00:30:00,
2013-01-13 18:32:00,5.8,-2.2,30.19,WNW,302,2.0,11.0,69,0.00,,CLR,0.00,VWS V14.01,2013-01-14 00:32:00,
2013-01-13 18:35:00,5.8,-2.2,30.19,West,270,4.0,10.0,69,0.00,,---,0.00,VWS V14.01,2013-01-14 00:35:00,
2013-01-13 18:37:00,5.8,-2.2,30.19,West,277,2.0,10.0,69,0.00,,CLR,0.00,VWS V14.01,2013-01-14 00:37:00,
2013-01-13 18:40:00,5.6,-2.3,30.19,West,270,4.0,9.0,69,0.00,,---,0.00,VWS V14.01,2013-01-14 00:40:00,
2013-01-13 18:42:00,5.6,-2.3,30.19,West,278,3.0,9.0,69,0.00,,CLR,0.00,VWS V14.01,2013-01-14 00:42:00,
2013-01-13 18:45:00,5.6,-2.3,30.19,West,270,2.0,6.0,69,0.00,,---,0.00,VWS V14.01,2013-01-14 00:45:00,
2013-01-13 18:47:00,5.6,-2.3,30.19,West,277,3.0,6.0,69,0.00,,CLR,0.00,VWS V14.01,2013-01-14 00:47:00,
2013-01-13 18:50:00,5.6,-2.0,30.19,West,270,3.0,6.0,70,0.00,,---,0.00,VWS V14.01,2013-01-14 00:50:00,
2013-01-13 18:52:00,5.6,-2.0,30.19,West,281,3.0,6.0,70,0.00,,CLR,0.00,VWS V14.01,2013-01-14 00:52:00,
2013-01-13 18:55:00,5.6,-2.0,30.19,West,270,5.0,9.0,70,0.00,,---,0.00,VWS V14.01,2013-01-14 00:55:00,
2013-01-13 18:57:00,5.6,-2.0,30.19,West,270,3.0,9.0,70,0.00,,CLR,0.00,VWS V14.01,2013-01-14 00:57:00,
2013-01-13 19:00:00,5.4,-2.2,30.19,West,270,3.0,7.0,70,0.00,,---,0.00,VWS V14.01,2013-01-14 01:00:00,
2013-01-13 19:02:00,5.4,-2.2,30.19,West,279,4.0,7.0,70,0.00,,CLR,0.00,VWS V14.01,2013-01-14 01:02:00,
2013-01-13 19:05:00,5.4,-2.2,30.19,West,270,1.0,4.0,70,0.00,,---,0.00,VWS V14.01,2013-01-14 01:05:00,
2013-01-13 19:07:00,5.4,-2.2,30.19,West,272,0.0,4.0,70,0.00,,CLR,0.00,VWS V14.01,2013-01-14 01:07:00,
2013-01-13 19:10:00,5.4,-2.2,30.19,West,270,0.0,0.0,70,0.00,,---,0.00,VWS V14.01,2013-01-14 01:10:00,
2013-01-13 19:12:00,5.4,-2.2,30.19,WNW,284,0.0,0.0,70,0.00,,CLR,0.00,VWS V14.01,2013-01-14 01:12:00,
2013-01-13 19:15:00,5.4,-2.2,30.20,West,270,1.0,7.0,70,0.00,,---,0.00,VWS V14.01,2013-01-14 01:15:00,
2013-01-13 19:17:00,5.4,-2.2,30.20,West,273,3.0,7.0,70,0.00,,CLR,0.00,VWS V14.01,2013-01-14 01:17:00,
2013-01-13 19:20:00,5.4,-2.2,30.20,West,270,3.0,7.0,70,0.00,,---,0.00,VWS V14.01,2013-01-14 01:20:00,
2013-01-13 19:22:00,5.4,-2.2,30.20,West,281,0.0,6.0,70,0.00,,CLR,0.00,VWS V14.01,2013-01-14 01:22:00,
2013-01-13 19:25:00,5.4,-1.9,30.20,West,270,0.0,0.0,71,0.00,,---,0.00,VWS V14.01,2013-01-14 01:25:00,
2013-01-13 19:27:00,5.4,-1.9,30.20,West,278,0.0,0.0,71,0.00,,CLR,0.00,VWS V14.01,2013-01-14 01:27:00,
2013-01-13 19:30:00,5.4,-1.9,30.20,West,270,0.0,0.0,71,0.00,,---,0.00,VWS V14.01,2013-01-14 01:30:00,
2013-01-13 19:32:00,5.4,-1.9,30.20,West,280,0.0,0.0,71,0.00,,CLR,0.00,VWS V14.01,2013-01-14 01:32:00,
2013-01-13 19:35:00,5.4,-1.9,30.20,West,270,0.0,4.0,71,0.00,,---,0.00,VWS V14.01,2013-01-14 01:35:00,
2013-01-13 19:40:00,5.4,-1.9,30.20,West,270,0.0,6.0,71,0.00,,---,0.00,VWS V14.01,2013-01-14 01:40:00,
2013-01-13 19:42:00,5.4,-1.9,30.20,West,279,4.0,6.0,71,0.00,,CLR,0.00,VWS V14.01,2013-01-14 01:42:00,
2013-01-13 19:45:00,5.4,-1.9,30.21,West,270,0.0,4.0,71,0.00,,---,0.00,VWS V14.01,2013-01-14 01:45:00,
2013-01-13 19:47:00,5.4,-1.9,30.21,West,269,0.0,4.0,71,0.00,,CLR,0.00,VWS V14.01,2013-01-14 01:47:00,
2013-01-13 19:50:00,5.4,-1.9,30.21,West,270,0.0,0.0,71,0.00,,---,0.00,VWS V14.01,2013-01-14 01:50:00,
2013-01-13 19:52:00,5.4,-1.9,30.21,West,269,0.0,0.0,71,0.00,,CLR,0.00,VWS V14.01,2013-01-14 01:52:00,
2013-01-13 19:55:00,5.4,-1.9,30.21,West,270,2.0,8.0,71,0.00,,---,0.00,VWS V14.01,2013-01-14 01:55:00,
2013-01-13 19:57:00,5.4,-1.9,30.21,West,278,0.0,8.0,71,0.00,,CLR,0.00,VWS V14.01,2013-01-14 01:57:00,
2013-01-13 20:00:00,5.6,-1.8,30.21,West,270,0.0,0.0,71,0.00,,---,0.00,VWS V14.01,2013-01-14 02:00:00,
2013-01-13 20:02:00,5.6,-1.8,30.21,West,278,0.0,0.0,71,0.00,,SCT110,0.00,VWS V14.01,2013-01-14 02:02:00,
2013-01-13 20:05:00,5.6,-1.8,30.21,West,270,1.0,8.0,71,0.00,,---,0.00,VWS V14.01,2013-01-14 02:05:00,
2013-01-13 20:07:00,5.6,-1.8,30.21,West,263,0.0,8.0,71,0.00,,SCT110,0.00,VWS V14.01,2013-01-14 02:07:00,
2013-01-13 20:10:00,5.6,-1.8,30.21,West,270,2.0,7.0,71,0.00,,---,0.00,VWS V14.01,2013-01-14 02:10:00,
2013-01-13 20:15:00,5.6,-1.8,30.21,West,270,3.0,7.0,71,0.00,,---,0.00,VWS V14.01,2013-01-14 02:15:00,
2013-01-13 20:17:00,5.6,-1.8,30.21,West,280,7.0,7.0,71,0.00,,SCT110,0.00,VWS V14.01,2013-01-14 02:17:00,
2013-01-13 20:20:00,5.6,-1.8,30.21,West,270,2.0,6.0,71,0.00,,---,0.00,VWS V14.01,2013-01-14 02:20:00,
2013-01-13 20:22:00,5.6,-1.8,30.21,West,277,0.0,7.0,71,0.00,,SCT110,0.00,VWS V14.01,2013-01-14 02:22:00,
2013-01-13 20:25:00,5.6,-1.8,30.21,West,270,2.0,6.0,71,0.00,,---,0.00,VWS V14.01,2013-01-14 02:25:00,
2013-01-13 20:27:00,5.6,-1.8,30.21,West,259,0.0,6.0,71,0.00,,SCT110,0.00,VWS V14.01,2013-01-14 02:27:00,
2013-01-13 20:30:00,5.6,-1.8,30.22,WSW,248,0.0,5.0,71,0.00,,---,0.00,VWS V14.01,2013-01-14 02:30:00,
2013-01-13 20:32:00,5.6,-1.8,30.22,WSW,255,0.0,5.0,71,0.00,,SCT110,0.00,VWS V14.01,2013-01-14 02:32:00,
2013-01-13 20:35:00,5.6,-1.8,30.22,West,270,1.0,7.0,71,0.00,,---,0.00,VWS V14.01,2013-01-14 02:35:00,
2013-01-13 20:37:00,5.6,-1.8,30.22,West,273,5.0,7.0,71,0.00,,SCT110,0.00,VWS V14.01,2013-01-14 02:37:00,
2013-01-13 20:40:00,5.6,-1.8,30.22,West,270,0.0,4.0,71,0.00,,---,0.00,VWS V14.01,2013-01-14 02:40:00,
2013-01-13 20:42:00,5.6,-1.8,30.22,WNW,294,0.0,5.0,71,0.00,,SCT110,0.00,VWS V14.01,2013-01-14 02:42:00,
2013-01-13 20:45:00,5.6,-1.5,30.22,West,270,1.0,9.0,72,0.00,,---,0.00,VWS V14.01,2013-01-14 02:45:00,
2013-01-13 20:47:00,5.6,-1.5,30.22,West,260,0.0,9.0,72,0.00,,SCT110,0.00,VWS V14.01,2013-01-14 02:47:00,
2013-01-13 20:50:00,5.6,-1.5,30.22,West,270,3.0,7.0,72,0.00,,---,0.00,VWS V14.01,2013-01-14 02:50:00,
2013-01-13 20:52:00,5.6,-1.5,30.22,WSW,254,0.0,7.0,72,0.00,,SCT110,0.00,VWS V14.01,2013-01-14 02:52:00,
2013-01-13 20:55:00,5.6,-1.5,30.22,WNW,292,1.0,5.0,72,0.00,,---,0.00,VWS V14.01,2013-01-14 02:55:00,
2013-01-13 20:57:00,5.6,-1.5,30.22,West,267,0.0,5.0,72,0.00,,SCT110,0.00,VWS V14.01,2013-01-14 02:57:00,
2013-01-13 21:00:00,5.6,-1.5,30.22,WNW,292,1.0,6.0,72,0.00,,---,0.00,VWS V14.01,2013-01-14 03:00:00,
2013-01-13 21:05:00,5.6,-1.5,30.22,SW,225,0.0,4.0,72,0.00,,---,0.00,VWS V14.01,2013-01-14 03:05:00,
2013-01-13 21:07:00,5.6,-1.5,30.22,West,275,0.0,4.0,72,0.00,,CLR,0.00,VWS V14.01,2013-01-14 03:07:00,
2013-01-13 21:10:00,5.6,-1.5,30.22,West,270,0.0,4.0,72,0.00,,---,0.00,VWS V14.01,2013-01-14 03:10:00,
2013-01-13 21:15:00,5.6,-1.5,30.22,West,270,0.0,0.0,72,0.00,,---,0.00,VWS V14.01,2013-01-14 03:15:00,
2013-01-13 21:17:00,5.6,-1.5,30.22,West,275,0.0,0.0,72,0.00,,CLR,0.00,VWS V14.01,2013-01-14 03:17:00,
2013-01-13 21:20:00,5.4,-1.6,30.22,West,270,0.0,0.0,72,0.00,,---,0.00,VWS V14.01,2013-01-14 03:20:00,
2013-01-13 21:22:00,5.4,-1.6,30.22,West,275,0.0,0.0,72,0.00,,CLR,0.00,VWS V14.01,2013-01-14 03:22:00,
2013-01-13 21:25:00,5.4,-1.6,30.22,West,270,0.0,0.0,72,0.00,,---,0.00,VWS V14.01,2013-01-14 03:25:00,
2013-01-13 21:30:00,5.4,-1.6,30.22,West,270,0.0,0.0,72,0.00,,---,0.00,VWS V14.01,2013-01-14 03:30:00,
2013-01-13 21:32:00,5.4,-1.6,30.22,West,276,0.0,0.0,72,0.00,,CLR,0.00,VWS V14.01,2013-01-14 03:32:00,
2013-01-13 21:35:00,5.4,-1.6,30.22,West,270,0.0,0.0,72,0.00,,---,0.00,VWS V14.01,2013-01-14 03:35:00,
2013-01-13 21:40:00,5.4,-1.6,30.22,West,270,0.0,0.0,72,0.00,,---,0.00,VWS V14.01,2013-01-14 03:40:00,
2013-01-13 21:42:00,5.4,-1.6,30.22,West,276,0.0,0.0,72,0.00,,CLR,0.00,VWS V14.01,2013-01-14 03:42:00,
2013-01-13 21:45:00,5.4,-1.6,30.22,West,270,0.0,0.0,72,0.00,,---,0.00,VWS V14.01,2013-01-14 03:45:00,
2013-01-13 21:47:00,5.4,-1.6,30.22,West,276,0.0,0.0,72,0.00,,CLR,0.00,VWS V14.01,2013-01-14 03:47:00,
2013-01-13 21:50:00,5.4,-1.6,30.22,West,270,0.0,0.0,72,0.00,,---,0.00,VWS V14.01,2013-01-14 03:50:00,
2013-01-13 21:52:00,5.4,-1.6,30.22,West,276,0.0,0.0,72,0.00,,CLR,0.00,VWS V14.01,2013-01-14 03:52:00,
2013-01-13 21:55:00,5.4,-1.6,30.22,West,270,1.0,5.0,72,0.00,,---,0.00,VWS V14.01,2013-01-14 03:55:00,
2013-01-13 21:57:00,5.4,-1.6,30.22,West,281,0.0,5.0,72,0.00,,CLR,0.00,VWS V14.01,2013-01-14 03:57:00,
2013-01-13 22:00:00,5.4,-1.6,30.23,West,270,0.0,0.0,72,0.00,,---,0.00,VWS V14.01,2013-01-14 04:00:00,
2013-01-13 22:05:00,5.4,-1.6,30.23,West,270,0.0,0.0,72,0.00,,---,0.00,VWS V14.01,2013-01-14 04:05:00,
2013-01-13 22:07:00,5.4,-1.6,30.23,West,281,0.0,0.0,72,0.00,,CLR,0.00,VWS V14.01,2013-01-14 04:07:00,
2013-01-13 22:10:00,5.4,-1.6,30.23,West,270,0.0,0.0,72,0.00,,---,0.00,VWS V14.01,2013-01-14 04:10:00,
2013-01-13 22:12:00,5.4,-1.6,30.23,West,281,0.0,0.0,72,0.00,,CLR,0.00,VWS V14.01,2013-01-14 04:12:00,
2013-01-13 22:15:00,5.4,-1.6,30.22,West,270,0.0,0.0,72,0.00,,---,0.00,VWS V14.01,2013-01-14 04:15:00,
2013-01-13 22:20:00,5.4,-1.6,30.22,West,270,0.0,0.0,72,0.00,,---,0.00,VWS V14.01,2013-01-14 04:20:00,
2013-01-13 22:22:00,5.4,-1.6,30.22,West,281,0.0,0.0,72,0.00,,CLR,0.00,VWS V14.01,2013-01-14 04:22:00,
2013-01-13 22:25:00,5.4,-1.6,30.22,West,270,0.0,0.0,72,0.00,,---,0.00,VWS V14.01,2013-01-14 04:25:00,
2013-01-13 22:27:00,5.4,-1.6,30.22,West,281,0.0,0.0,72,0.00,,CLR,0.00,VWS V14.01,2013-01-14 04:27:00,
2013-01-13 22:30:00,5.4,-1.6,30.23,West,270,0.0,0.0,72,0.00,,---,0.00,VWS V14.01,2013-01-14 04:30:00,
2013-01-13 22:35:00,5.4,-1.4,30.23,West,270,0.0,0.0,73,0.00,,---,0.00,VWS V14.01,2013-01-14 04:35:00,
2013-01-13 22:37:00,5.4,-1.4,30.23,West,275,0.0,0.0,73,0.00,,CLR,0.00,VWS V14.01,2013-01-14 04:37:00,
2013-01-13 22:40:00,5.4,-1.4,30.23,West,270,0.0,0.0,73,0.00,,---,0.00,VWS V14.01,2013-01-14 04:40:00,
2013-01-13 22:42:00,5.4,-1.4,30.23,West,275,0.0,0.0,73,0.00,,CLR,0.00,VWS V14.01,2013-01-14 04:42:00,
2013-01-13 22:45:00,5.4,-1.4,30.24,West,270,0.0,0.0,73,0.00,,---,0.00,VWS V14.01,2013-01-14 04:45:00,
2013-01-13 22:47:00,5.4,-1.4,30.24,West,275,0.0,0.0,73,0.00,,CLR,0.00,VWS V14.01,2013-01-14 04:47:00,
2013-01-13 22:50:00,5.4,-1.4,30.24,West,270,0.0,0.0,73,0.00,,---,0.00,VWS V14.01,2013-01-14 04:50:00,
2013-01-13 22:52:00,5.4,-1.4,30.24,West,275,0.0,0.0,73,0.00,,CLR,0.00,VWS V14.01,2013-01-14 04:52:00,
2013-01-13 22:55:00,5.4,-1.4,30.24,West,270,0.0,0.0,73,0.00,,---,0.00,VWS V14.01,2013-01-14 04:55:00,
2013-01-13 22:57:00,5.4,-1.4,30.24,West,275,0.0,0.0,73,0.00,,CLR,0.00,VWS V14.01,2013-01-14 04:57:00,
2013-01-13 23:00:00,5.4,-1.4,30.24,West,270,0.0,0.0,73,0.00,,---,0.00,VWS V14.01,2013-01-14 05:00:00,
2013-01-13 23:02:00,5.4,-1.4,30.24,West,275,0.0,0.0,73,0.00,,CLR,0.00,VWS V14.01,2013-01-14 05:02:00,
2013-01-13 23:05:00,5.4,-1.4,30.24,West,270,0.0,0.0,73,0.00,,---,0.00,VWS V14.01,2013-01-14 05:05:00,
2013-01-13 23:07:00,5.4,-1.4,30.24,West,275,0.0,0.0,73,0.00,,CLR,0.00,VWS V14.01,2013-01-14 05:07:00,
2013-01-13 23:10:00,5.4,-1.1,30.24,West,270,0.0,0.0,74,0.00,,---,0.00,VWS V14.01,2013-01-14 05:10:00,
2013-01-13 23:12:00,5.4,-1.1,30.24,West,275,0.0,0.0,74,0.00,,CLR,0.00,VWS V14.01,2013-01-14 05:12:00,
2013-01-13 23:15:00,5.6,-0.9,30.23,West,270,0.0,0.0,74,0.00,,---,0.00,VWS V14.01,2013-01-14 05:15:00,
2013-01-13 23:17:00,5.6,-0.9,30.23,West,275,0.0,0.0,74,0.00,,CLR,0.00,VWS V14.01,2013-01-14 05:17:00,
2013-01-13 23:20:00,5.4,-1.1,30.23,West,270,0.0,0.0,74,0.00,,---,0.00,VWS V14.01,2013-01-14 05:20:00,
2013-01-13 23:22:00,5.4,-1.1,30.23,West,275,0.0,0.0,74,0.00,,CLR,0.00,VWS V14.01,2013-01-14 05:22:00,
2013-01-13 23:25:00,5.4,-1.1,30.23,West,270,0.0,0.0,74,0.00,,---,0.00,VWS V14.01,2013-01-14 05:25:00,
2013-01-13 23:27:00,5.4,-1.1,30.23,West,275,0.0,0.0,74,0.00,,CLR,0.00,VWS V14.01,2013-01-14 05:27:00,
2013-01-13 23:30:00,5.4,-1.1,30.24,West,270,0.0,0.0,74,0.00,,---,0.00,VWS V14.01,2013-01-14 05:30:00,
2013-01-13 23:32:00,5.4,-1.1,30.24,SW,229,0.0,0.0,74,0.00,,CLR,0.00,VWS V14.01,2013-01-14 05:32:00,
2013-01-13 23:35:00,5.4,-1.1,30.24,West,270,0.0,0.0,74,0.00,,---,0.00,VWS V14.01,2013-01-14 05:35:00,
2013-01-13 23:37:00,5.4,-1.1,30.24,SW,229,0.0,0.0,74,0.00,,CLR,0.00,VWS V14.01,2013-01-14 05:37:00,
2013-01-13 23:40:00,5.4,-1.1,30.24,West,270,0.0,0.0,74,0.00,,---,0.00,VWS V14.01,2013-01-14 05:40:00,
2013-01-13 23:42:00,5.4,-1.1,30.24,SW,229,0.0,0.0,74,0.00,,CLR,0.00,VWS V14.01,2013-01-14 05:42:00,
2013-01-13 23:45:00,5.2,-1.3,30.24,West,270,0.0,0.0,74,0.00,,---,0.00,VWS V14.01,2013-01-14 05:45:00,
2013-01-13 23:47:00,5.2,-1.3,30.24,SW,230,0.0,0.0,74,0.00,,CLR,0.00,VWS V14.01,2013-01-14 05:47:00,
2013-01-13 23:50:00,5.2,-1.3,30.24,West,270,0.0,0.0,74,0.00,,---,0.00,VWS V14.01,2013-01-14 05:50:00,
2013-01-13 23:52:00,5.2,-1.3,30.24,SW,231,0.0,0.0,74,0.00,,CLR,0.00,VWS V14.01,2013-01-14 05:52:00,
2013-01-13 23:55:00,5.2,-1.3,30.24,West,270,0.0,0.0,74,0.00,,---,0.00,VWS V14.01,2013-01-14 05:55:00,
2013-01-13 23:57:00,5.2,-1.3,30.24,SW,231,0.0,0.0,74,0.00,,CLR,0.00,VWS V14.01,2013-01-14 05:57:00,